Погода в Шадринске

Хотите узнать прогноз погоды в Шадринске? Тогда Вам сюда: Погода в Шадринске

Поиск расширенной информации на нашем сайте:

Полезная информация:

Новости сайта



02.01.2020
Опубликован Долгосрочный прогноз погоды по городам России и ближнего зарубежья на январь 2020 года.
Карты: Прогноз на январь и февраль 2020 года, Сравнение прогнозируемой аномалии приземной температуры воздуха на январь 2020 года по разным моделям.




Погода в Шадринске - сегодня

Время (UTC), дата Ветер
(°,м/с) 
Видим.   Явления Облачность Т
(°С)
Тd
(°С)
f(%) Тe
(°С)
Pmin
(гПа)
dP
(гПа)
Po
(мм)
O2
(г/м3)
Тmin Tmax R s Состояние
почвы
00 16.01.22 200 (Ю) 7-11{13}  4000 м  слаб. снег  10/8 300 м средняя 
[Frnb|As trans]
-1 -4.1 79 -5  986.7  1.8  732  296           
03 16.01.22 190 (Ю) 5{13}  10 км  позёмок{снег}  10/8 600 м верхняя 
[Sc|Ci sp]
-2.7 -6.2 77 -6  989.4  2.6  734  299  -11.8    24  равномерный
сухой снег
100% 
06 16.01.22 160 (Ю) 4000 м  слаб. снег  10/10 300 м 
[Frnb|Ns]
-1.7 -4.2 83 -4  989.7  0.3  734  298           
09 16.01.22 140 (ЮВ) 0500 м  сильн. снег  10/10 300 м 
[Frnb|Ns]
-1.3 -2 95 -3  986.4  -3.3  732  296           
12 16.01.22 150 (ЮВ) 4000 м  слаб. снег  10/10 300 м 
[Frnb|Ns]
-2.4 -3.1 95 -4  983.8  -2.6  730  297           
15 16.01.22 270 (З) 4000 м  слаб. снег  10/10 300 м 
[Frnb|Ns]
-3.7 -4.3 96 -6  983.1  -0.7  729  298    -1.3     
18 16.01.22 280 (З) 6-11{13}  4000 м  слаб. снег  10/6 300 м средняя 
[Frnb|As trans]
-8.9 -10.1 91 -14  986.9  3.5  732  306           
21 16.01.22 240 (ЮЗ) 5{11}  10 км  позёмок{снег}  9/0 верхняя 
[Ci sp]
-12.4 -16.4 72 -18  991.3  4.2  735  312           
00 17.01.22 230 (ЮЗ) 5{11}  10 км  {снег}  6/0 верхняя 
[Ci sp]
-14.3 -18.3 72 -20  995  3.6  738  315           
03 17.01.22 230 (ЮЗ) 10 км    3/1 600 м верхняя 
[Sc|Ci sp]
-14.3 -17.9 74 -20  997.5  2.5  739  316  -14.6    28  равномерный
сухой снег
100% 
06 17.01.22 240 (ЮЗ) 10 км    8/1 600 м верхняя 
[Sc|Ci sp]
-13.2 -17.2 72 -18  1000.8  3.3  742  316           
09 17.01.22 240 (ЮЗ) 4{11}  10 км    6/3 600 м верхняя 
[Sc|Ci sp]
-11.1 -14.9 73 -15  1003.2  2.4  744  314           
12 17.01.22 240 (ЮЗ) 10 км    9/1 600 м средняя, верхняя 
[Sc|Ac trans|Ci sp]
-9.1 -13.2 72 -12  1005.6  2.5  746  312           
15 17.01.22 210 (ЮЗ) 10 км    10/10 600 м 
[Sc]
-8.8 -12.9 72 -13  1007.3  1.7  747  312    -8.8       
18 17.01.22 200 (Ю) 5{10}  10 км    8/6 600 м верхняя 
[Sc|Ci sp]
-7.7 -13.1 65 -12  1007.7  0.4  747  311           
21 17.01.22 210 (ЮЗ) 7-12{13}  10 км  позёмок  10/10 600 м 
[Sc]
-7.9 -12.7 68 -13  1008.4  0.7  748  311           
00 18.01.22 220 (ЮЗ) 5-11{12}  10 км    8/4 600 м верхняя 
[Sc|Ci sp]
-7.4 -12.2 68 -12  1010  1.6  749  311           
03 18.01.22 210 (ЮЗ) 6-10{11}  10 км  позёмок  8/3 600 м средняя, верхняя 
[Sc|Ac trans|Ci sp]
-8 -12.3 71 -13  1011.3  1.3  750  312  -8.8      28  равномерный
сухой снег
100% 
06 18.01.22 210 (ЮЗ) 7-10{11}  10 км  позёмок  8/3 600 м средняя, верхняя 
[Sc|Ac trans|Ci sp]
-7.6 -12.5 68 -13  1013.2  1.8  751  313           
09 18.01.22 210 (ЮЗ) 6-10{12}  10 км  позёмок  8/4 600 м средняя 
[Sc|Ac trans]
-5.8 -11.5 64 -10  1013.8  0.7  752  311           
12 18.01.22 210 (ЮЗ) 4{11}  10 км    4/0 верхняя 
[Ci sp]
-7.6 -12.7 67 -11  1015.4  1.4  753  313           
15 18.01.22 200 (Ю) 10 км    9/0 верхняя 
[Ci sp]
-9.2 -13.2 73 -11  1016.2  0.7  753  315    -5.6       
18 18.01.22 190 (Ю) 10 км    8/0 верхняя 
[Ci sp]
-10.5 -13.7 77 -10  1016.2  0.1  753  317           
21 18.01.22 270 (З) 10 км    8/3 600 м верхняя 
[Sc|Ci sp]
-10.1 -13.2 78 -10  1016.9  0.7  754  317           
00 19.01.22 230 (ЮЗ) 10 км    9/3 600 м верхняя 
[Sc|Ci sp]
-9.4 -12.5 78 -11  1017.2  0.3  754  316           
Время (UTC), дата Ветер
(°,м/с) 
Видим.   Явления Облачность Т
(°С)
Тd
(°С)
f(%) Тe
(°С)
Pmin
(гПа)
dP
(гПа)
Po
(мм)
O2
(г/м3)
Тmin Tmax R s Состояние
почвы

Для получения пояснительной информации подведите курсор к названию столбца.

ПОГОДА в Шадринске - архив

Всё, что Вы хотите узнать о погоде в Шадринске - удобно и подробно!

Выберите нужную дату (начиная с 1 января 2019* года) и нажмите кнопку "Найти".
Будут отображены архивные сводки погоды по пункту Шадринск, начиная с указанной даты.


Отображать данные в формате CSV (для использования в таблицах Excel)


Внимание! Наш архив погоды предназначен исключительно для личного некоммерческого использования в познавательных целях. Если Вам необходимы официальные справки о состоянии погоды (для производственных, юридических, коммерческих и т.п. целей), обращайтесь в органы Росгидромета.

*Примечание: данная дата относится к архиву по метеостанциям СССР (Россия, СНГ, Балтия).
Архив по метеостанциям Зарубежной Европы и Азии (кроме Китая) хранится 10 дней, по другим регионам земного шара (Китай, Африка, Америка, Австралия, Океания) - 1 день.

Шадринск - район местоположения метеостанции


Название, широта, долгота, высота метеостанции:
Шадринск 56.1°ш. 63.6°д. 89 м над ур. моря [Российская Федерация]

Дополнительная информация

В oтличие oт бoльшинства пoгoдных сайтoв мы публикуем пoдрoбную метеoинфoрмацию в детальнoм прoфессиoнальнoм фoрмате.

Характеристики температуры и влажнoсти вoздуха измеряются на высoте 2 м в тени вдали oт зданий и деревьев.
Скoрoсть ветра измеряется на высoте 10 м (на урoвне рoста челoвека скoрoсть ветра ниже в 1.5-2 раза). Если метеoстанция нахoдится в гoрoде или в лесу, тo скoрoсть ветра занижена на 2-4 м/с пo сравнению с oткрытым местoм. Скoрoсть ветра над акватoриями крупных рек и oзёр, а также на вершинах хoлмoв на 2-5 м/с выше, чем в oбычных услoвиях.
Атмoсфернoе давление в разных тoчках местнoсти мoжет значительнo oтличаться oт давления на метеoстанции, в зависимoсти oт услoвий рельефа (при пoдъёме на 10 м давление пoнижается примернo на 1 мм рт.ст.).